Location: Castiglione Fibocchi
(43.5333°N, 11.7667°E)
Time: 14:26:10
(UTC+00:00)

ARIANE 5 R/B - Pass Details

Date: 15 August 2020
Orbit: 749 x 795 km, 98.6° (Epoch: 24 September)

Event Time Altitude Azimuth Distance (km) Brightness Sun altitude
Rises 02:25:45 0° 10° (N) 3,305 6.6 -18.3°
Reaches altitude 10° 02:28:06 10° 8° (N) 2,373 5.7 -17.9°
Maximum altitude 02:33:18 65° 288° (WNW) 871 2.6 -17.2°
Enters shadow 02:36:10 27° 213° (SSW) 1,497 3.4 -16.8°
